Find Starlink 36272

NORAD ID: 68215 Int'l Des: 2026-053 Owner: SPXS Country: US Constellation: starlink operational
LEOCIRCULARRETROGRADE

リアルタイム位置

3D地球を読み込み中...

Starlink 36272について

説明を読み込み中...

次回通過

Passes for default location (London). Set your location on the main map for personalized predictions.

高度履歴

Loading altitude history...

軌道要素

1 68215U 26053J 26122.17839985 .00012836 00000-0 38883-3 0 9994
2 68215 97.2853 357.9249 0002310 52.9687 307.1768 15.34283337 8391
Epoch: May 2, 2026 • Age: 6 hours

現在のステータス

高度 492.0 km
速度 7.62 km/s
衛星直下点 -76.70°S, 133.75°E
打ち上げ日 Mar 17, 2026
運用期間 0.1 years
タイプ internet

技術仕様

分類 Payload
質量 575.00 kg
乾燥質量 530.00 kg
総質量 575.00 kg
長さ 0.30 m
直径 4.10 m
スパン 29.00 m
形状 Box + pan
製造者 SPXS
バスタイプ Starlink V2MO
フェーズステータス In Orbit
所有者/国 SPXS/US

Most Searched